Weather History for KOTM - October, 2010

Change the Weather History Date:

Thursday, October 28, 2010

  Actual Average Record
Temperature  
Mean Temperature 38 °F 48 °F  
Max Temperature 47 °F 59 °F 84 °F (1927)
Min Temperature 29 °F 38 °F 12 °F (1925)
Degree Days  
Heating Degree Days 27 17  
Month to date heating degree days 254 349  
Since 1 July heating degree days 339 470  
Cooling Degree Days 0 0  
Month to date cooling degree days 7 9  
Year to date cooling degree days 1105 936  
Moisture  
Dew Point 29 °F    
Average Humidity 62    
Maximum Humidity 78    
Minimum Humidity 45    
Precipitation  
Precipitation 0.00 in 0.08 in 2.05 in (1921)
Month to date precipitation 0.76 2.56  
Year to date precipitation 50.13 33.05  
Sea Level Pressure  
Sea Level Pressure 30.28 in    
Wind  
Wind Speed 14 mph (WNW)    
Max Wind Speed 28 mph    
Max Gust Speed 35 mph    
Visibility 10 miles    
Events      
T = Trace of Precipitation, MM = Missing Value Source: NWS Daily Summary

Daily Weather History Graph

Daily Weather History Graph

Search for Another Location

Airport or City:

Trip Planner

Search our weather history database for the weather conditions in past years. The results will help you decide how hot, cold, wet, or windy it might be!

Date:

Astronomy

Oct. 28, 2010 Rise Set
Actual Time 7:36 AM CDT 6:10 PM CDT
Civil Twilight 7:07 AM CDT 6:38 PM CDT
Nautical Twilight 6:35 AM CDT 7:11 PM CDT
Astronomical Twilight 6:03 AM CDT 7:43 PM CDT
Moon 10:40 PM CDT (10/28) 12:58 PM CDT (10/28)
Length of Visible Light 11h 31m
Length of Day
10h 34m
Waning Gibbous, 70% of the Moon is Illuminated
Oct 28
Waning Gibbous
Oct 30
Last Quarter
Nov 5
New
Nov 13
First Quarter
Nov 21
Full

Hourly Weather History & Observations

Time (CDT) Temp. Windchill Dew Point Humidity Pressure Visibility Wind Dir Wind Speed Gust Speed Precip Events Conditions
12:53 AM 39.9 °F 30.5 °F 30.0 °F 68% 30.05 in - WNW 19.6 mph 25.3 mph N/A   Overcast
1:53 AM 39.9 °F 31.4 °F 30.0 °F 68% 30.06 in - WNW 16.1 mph 27.6 mph N/A   Overcast
2:53 AM 39.9 °F 32.1 °F 30.9 °F 70% 30.09 in - NW 13.8 mph 23.0 mph N/A   Overcast
3:53 AM 39.9 °F 30.8 °F 30.0 °F 68% 30.11 in - WNW 18.4 mph 28.8 mph N/A   Overcast
4:53 AM 39.9 °F 30.2 °F 28.9 °F 65% 30.14 in - WNW 20.7 mph 34.5 mph N/A   Overcast
5:53 AM 39.0 °F 28.5 °F 30.0 °F 70% 30.17 in - NW 23.0 mph 32.2 mph N/A   Overcast
6:53 AM 39.0 °F 29.3 °F 30.0 °F 70% 30.20 in - WNW 19.6 mph 25.3 mph N/A   Overcast
7:53 AM 39.0 °F 28.8 °F 30.0 °F 70% 30.23 in - WNW 21.9 mph 29.9 mph N/A   Overcast
8:53 AM 39.0 °F 30.6 °F 30.0 °F 70% 30.27 in - NW 15.0 mph 26.5 mph N/A   Overcast
9:53 AM 39.9 °F 32.1 °F 30.9 °F 70% 30.30 in - NW 13.8 mph 26.5 mph N/A   Overcast
10:53 AM 39.2 °F 30.8 °F 30.2 °F 70% 30.30 in - WNW 15.0 mph - N/A   Overcast
11:53 AM 39.9 °F 31.8 °F 32.0 °F 73% 30.35 in 6.0 mi WNW 15.0 mph - N/A   Haze
12:53 PM 41.0 °F 33.1 °F 30.0 °F 65% 30.34 in 10.0 mi West 15.0 mph 24.2 mph N/A   Overcast
1:30 PM 44.6 °F 36.9 °F 30.2 °F 57% 30.32 in 10.0 mi NW 18.4 mph - N/A   Partly Cloudy
1:53 PM 45.0 °F 38.2 °F 30.9 °F 58% 30.33 in 10.0 mi WNW 15.0 mph - N/A   Clear
2:53 PM 46.0 °F 38.8 °F 28.0 °F 50% 30.34 in 10.0 mi WNW 18.4 mph 26.5 mph N/A   Clear
3:53 PM 46.0 °F 39.3 °F 27.0 °F 47% 30.35 in 10.0 mi NW 16.1 mph 29.9 mph N/A   Clear
4:53 PM 46.0 °F 39.6 °F 28.9 °F 51% 30.36 in 10.0 mi WNW 15.0 mph - N/A   Clear
5:53 PM 43.0 °F 36.8 °F 28.0 °F 56% 30.37 in 10.0 mi WNW 11.5 mph - N/A   Clear
6:53 PM 37.9 °F 32.1 °F 27.0 °F 65% 30.38 in 10.0 mi WNW 8.1 mph - N/A   Clear
7:53 PM 37.0 °F 30.4 °F 27.0 °F 67% 30.39 in 10.0 mi WNW 9.2 mph - N/A   Clear
8:53 PM 33.1 °F 27.7 °F 27.0 °F 78% 30.40 in 10.0 mi WNW 5.8 mph - N/A   Clear
9:53 PM 33.1 °F 27.7 °F 26.1 °F 75% 30.41 in 10.0 mi WNW 5.8 mph - N/A   Clear
10:53 PM 33.1 °F 27.7 °F 26.1 °F 75% 30.42 in 10.0 mi WNW 5.8 mph - N/A   Clear
11:53 PM 30.0 °F 24.1 °F 24.1 °F 79% 30.41 in 10.0 mi West 5.8 mph - N/A   Clear